| time (UTC) | temp F | wind direction | speed knots | gust knots | rain 1hr in | rain 24hr in | rain mn in | humidity % | barometer mb |
| 20260502151553 | 54 | 283 | 6.1 | 11.3 | 0.00 | 0.00 | 0.00 | 51 | 1006.1 |
| 20260502123037 | 46 | 264 | 5.2 | 10.4 | 0.00 | 0.00 | 0.00 | 59 | 1008.0 |
| 20260502121553 | 46 | 223 | 5.2 | 9.6 | 0.00 | 0.00 | 0.00 | 60 | 1008.0 |
| 20260502114520 | 46 | 206 | 4.3 | 8.7 | 0.00 | 0.00 | 0.00 | 60 | 1008.6 |
| 20260502113024 | 46 | 200 | 5.2 | 8.7 | 0.00 | 0.00 | 0.00 | 58 | 1008.9 |
| 20260502111527 | 47 | 254 | 5.2 | 11.3 | 0.00 | 0.00 | 0.00 | 56 | 1008.8 |
| 20260502110040 | 47 | 252 | 3.5 | 13.0 | 0.00 | 0.00 | 0.00 | 55 | 1009.4 |
| 20260502104553 | 47 | 227 | 3.5 | 9.6 | 0.00 | 0.00 | 0.00 | 56 | 1009.4 |
| 20260502103114 | 46 | 242 | 4.3 | 10.4 | 0.00 | 0.00 | 0.00 | 57 | 1009.4 |
| 20260502101502 | 46 | 259 | 3.5 | 8.7 | 0.00 | 0.00 | 0.00 | 58 | 1009.6 |
| 20260502091525 | 45 | 224 | 3.5 | 8.7 | 0.00 | 0.00 | 0.00 | 58 | 1010.0 |
| 20260502070027 | 45 | 221 | 3.5 | 7.8 | 0.00 | 0.00 | 0.00 | 56 | 1011.3 |
| 20260502064528 | 46 | 221 | 2.6 | 7.8 | 0.00 | 0.00 | 0.00 | 55 | 1011.6 |
| 20260502063041 | 47 | 233 | 4.3 | 8.7 | 0.00 | 0.00 | 0.00 | 54 | 1011.7 |
| 20260502061545 | 47 | 241 | 3.5 | 7.0 | 0.00 | 0.00 | 0.00 | 54 | 1011.7 |
| 20260502060046 | 47 | 247 | 2.6 | 7.0 | 0.00 | 0.00 | 0.00 | 53 | 1011.8 |
| 20260502054559 | 48 | 266 | 3.5 | 7.8 | 0.00 | 0.00 | 0.00 | 51 | 1011.9 |
| 20260502053009 | 48 | 229 | 3.5 | 10.4 | 0.00 | 0.00 | 0.00 | 51 | 1012.1 |
| 20260502051529 | 49 | 228 | 2.6 | 8.7 | 0.00 | 0.00 | 0.00 | 50 | 1012.2 |
| 20260502050017 | 49 | 243 | 4.3 | 7.8 | 0.00 | 0.00 | 0.00 | 50 | 1012.2 |
| 20260502044530 | 49 | 219 | 4.3 | 7.0 | 0.00 | 0.00 | 0.00 | 49 | 1012.4 |
| 20260502043033 | 50 | 223 | 3.5 | 10.4 | 0.00 | 0.00 | 0.00 | 47 | 1012.5 |
| 20260502041536 | 50 | 256 | 4.3 | 7.0 | 0.00 | 0.00 | 0.00 | 46 | 1012.6 |
| 20260502040049 | 50 | 246 | 2.6 | 7.0 | 0.00 | 0.00 | 0.00 | 45 | 1012.7 |
| 20260502034602 | 51 | 225 | 2.6 | 6.1 | 0.00 | 0.00 | 0.00 | 44 | 1012.8 |
| 20260502033014 | 51 | 250 | 3.5 | 7.0 | 0.00 | 0.00 | 0.00 | 43 | 1012.8 |
| 20260502031515 | 51 | 242 | 0.0 | 3.5 | 0.00 | 0.00 | 0.00 | 43 | 1012.8 |
| 20260502030018 | 51 | 263 | 0.9 | 3.5 | 0.00 | 0.00 | 0.00 | 41 | 1012.8 |
| 20260502024533 | 52 | 256 | 1.7 | 4.3 | 0.00 | 0.00 | 0.00 | 40 | 1012.7 |
| 20260502023036 | 53 | 276 | 0.9 | 3.5 | 0.00 | 0.00 | 0.00 | 38 | 1012.7 |
| 20260502021549 | 55 | 290 | 1.7 | 6.1 | 0.00 | 0.00 | 0.00 | 36 | 1012.6 |
| 20260502020116 | 56 | 287 | 0.9 | 4.3 | 0.00 | 0.00 | 0.00 | 35 | 1012.5 |
| 20260502014526 | 58 | 285 | 1.7 | 5.2 | 0.00 | 0.00 | 0.00 | 33 | 1012.5 |
| 20260502013020 | 60 | 299 | 4.3 | 7.8 | 0.00 | 0.00 | 0.00 | 32 | 1012.5 |
| 20260502011528 | 62 | 308 | 6.1 | 11.3 | 0.00 | 0.00 | 0.00 | 31 | 1012.6 |
| 20260502010025 | 63 | 249 | 0.0 | 4.3 | 0.00 | 0.00 | 0.00 | 32 | 1012.6 |
| 20260502004529 | 63 | 298 | 1.7 | 6.1 | 0.00 | 0.00 | 0.00 | 31 | 1012.7 |
| 20260502003034 | 63 | 277 | 1.7 | 9.6 | 0.00 | 0.00 | 0.00 | 32 | 1012.7 |
| 20260502001536 | 63 | 203 | 3.5 | 9.6 | 0.00 | 0.00 | 0.00 | 31 | 1012.8 |
| 20260502000047 | 62 | 235 | 4.3 | 10.4 | 0.00 | 0.00 | 0.00 | 31 | 1013.0 |
| 20260501234601 | 63 | 254 | 6.1 | 13.0 | 0.00 | 0.00 | 0.00 | 31 | 1013.0 |
| 20260501233010 | 63 | 229 | 2.6 | 7.0 | 0.00 | 0.00 | 0.00 | 32 | 1013.2 |
| 20260501231535 | 62 | 262 | 3.5 | 10.4 | 0.00 | 0.00 | 0.00 | 32 | 1013.3 |
| 20260501230036 | 63 | 200 | 3.5 | 13.0 | 0.00 | 0.00 | 0.00 | 32 | 1013.3 |
| 20260501224542 | 62 | 235 | 6.1 | 10.4 | 0.00 | 0.00 | 0.00 | 32 | 1013.4 |
| 20260501223045 | 62 | 249 | 4.3 | 13.9 | 0.00 | 0.00 | 0.00 | 33 | 1013.5 |
| 20260501221559 | 62 | 264 | 4.3 | 9.6 | 0.00 | 0.00 | 0.00 | 32 | 1013.6 |
| 20260501220013 | 61 | 199 | 4.3 | 8.7 | 0.00 | 0.00 | 0.00 | 33 | 1013.7 |
| 20260501214523 | 62 | 202 | 7.0 | 12.2 | 0.00 | 0.00 | 0.00 | 33 | 1013.9 |
| 20260501213016 | 61 | 193 | 6.1 | 13.9 | 0.00 | 0.00 | 0.00 | 33 | 1014.0 |
| 20260501211522 | 60 | 196 | 6.1 | 11.3 | 0.00 | 0.00 | 0.00 | 35 | 1014.4 |
| 20260501210024 | 61 | 233 | 0.9 | 7.0 | 0.00 | 0.00 | 0.00 | 34 | 1014.4 |
| 20260501204534 | 63 | 190 | 3.5 | 10.4 | 0.00 | 0.00 | 0.00 | 34 | 1014.6 |
| 20260501203037 | 62 | 233 | 5.2 | 10.4 | 0.00 | 0.00 | 0.00 | 35 | 1014.7 |
| 20260501201552 | 61 | 240 | 2.6 | 10.4 | 0.00 | 0.00 | 0.00 | 36 | 1014.8 |
| 20260501200052 | 61 | 217 | 3.5 | 7.8 | 0.00 | 0.00 | 0.00 | 36 | 1014.9 |
| 20260501194557 | 60 | 210 | 1.7 | 5.2 | 0.00 | 0.00 | 0.00 | 36 | 1014.9 |
| 20260501193059 | 61 | 293 | 1.7 | 6.1 | 0.00 | 0.00 | 0.00 | 35 | 1014.9 |
| 20260501191502 | 60 | 294 | 1.7 | 7.0 | 0.00 | 0.00 | 0.00 | 38 | 1014.9 |
| 20260501190004 | 59 | 324 | 6.1 | 11.3 | 0.00 | 0.00 | 0.00 | 37 | 1015.1 |
| 20260501184506 | 58 | 351 | 0.9 | 7.8 | 0.00 | 0.00 | 0.00 | 38 | 1015.2 |
| 20260501183012 | 59 | 6 | 0.9 | 8.7 | 0.00 | 0.00 | 0.00 | 38 | 1015.4 |
| 20260501181520 | 59 | 63 | 0.9 | 5.2 | 0.00 | 0.00 | 0.00 | 40 | 1015.6 |
| 20260501180034 | 58 | 59 | 1.7 | 7.8 | 0.00 | 0.00 | 0.00 | 41 | 1015.7 |
| 20260501174540 | 56 | 326 | 6.1 | 13.0 | 0.00 | 0.00 | 0.00 | 41 | 1016.0 |
| 20260501173100 | 57 | 302 | 7.0 | 9.6 | 0.00 | 0.00 | 0.00 | 41 | 1016.0 |
| 20260501171554 | 57 | 356 | 3.5 | 7.8 | 0.00 | 0.00 | 0.00 | 42 | 1016.0 |
| 20260501170058 | 56 | 288 | 2.6 | 8.7 | 0.00 | 0.00 | 0.00 | 43 | 1016.1 |
| 20260501164510 | 56 | 349 | 1.7 | 7.0 | 0.00 | 0.00 | 0.00 | 42 | 1016.0 |
| 20260501163018 | 56 | 85 | 5.2 | 7.8 | 0.00 | 0.00 | 0.00 | 44 | 1016.0 |
| 20260501161515 | 55 | 345 | 0.9 | 6.1 | 0.00 | 0.00 | 0.00 | 46 | 1016.0 |
| 20260501160030 | 55 | 325 | 0.9 | 7.8 | 0.00 | 0.00 | 0.00 | 45 | 1016.0 |
| 20260501154536 | 54 | 359 | 0.9 | 7.8 | 0.00 | 0.00 | 0.00 | 45 | 1016.1 |
| 20260501153034 | 53 | 2 | 1.7 | 7.8 | 0.00 | 0.00 | 0.00 | 47 | 1016.2 |